Theta_e
295 295 295 296 296 295 296 296 297 296 296 297 297 298 299 299 301 302 304 305 306 309 312 318 325 327 327 328 328 329 329 329 329 330 330 330 330 329 329 329 328 328 328 328 328 328 329 330 329 329 328 327 326 326 326 326 326 325 325 325 325 325
294 294 294 294 294 294 294 295 295 295 295 295 295 296 297 298 299 300 300 301 303 304 306 308 311 316 324 327 327 327 327 327 327 328 328 329 329 330 330 327 326 326 326 327 327 327 328 329 329 328 328 327 326 325 325 326 326 325 324 324 325 324
293 294 294 294 294 295 294 294 294 294 294 294 294 294 295 296 297 298 298 299 300 301 302 304 307 309 312 317 323 325 327 328 325 328 328 328 328 328 327 327 327 327 327 326 325 325 326 328 328 328 327 326 325 325 325 325 325 324 324 324 324 324
292 292 293 294 293 293 293 293 293 293 292 293 293 294 294 294 295 296 297 298 299 299 300 302 304 307 309 311 313 317 323 326 327 328 327 327 328 329 328 327 327 327 327 326 326 326 326 327 327 327 327 325 325 324 325 324 324 323 323 323 322 323
290 290 291 291 292 292 292 292 292 292 292 292 292 292 293 294 294 295 295 296 297 298 299 301 302 303 305 306 309 311 314 320 324 326 327 327 328 328 328 328 327 327 326 326 326 326 326 326 326 326 326 325 325 324 324 324 323 323 322 322 322 322
289 289 289 289 290 291 291 291 291 291 291 291 291 291 292 293 293 294 294 295 295 297 298 299 300 301 302 303 305 307 309 312 317 321 325 326 328 328 328 328 328 327 327 326 326 326 326 326 326 326 326 325 325 324 324 324 323 323 323 322 322 322
286 287 287 289 289 289 289 290 290 290 290 290 290 291 291 292 293 293 293 294 294 295 296 297 298 299 300 300 301 303 305 308 310 314 318 323 325 327 327 328 327 327 327 327 326 326 325 325 325 325 325 325 325 325 324 324 323 323 322 322 322 315
285 286 287 287 289 289 289 288 288 289 289 290 290 290 290 291 292 292 292 293 293 294 295 296 297 297 298 299 300 301 302 304 307 310 314 317 321 324 326 327 327 326 326 326 326 326 325 326 325 325 325 325 324 324 324 324 323 323 322 322 322 322
284 285 286 287 287 288 288 288 288 288 288 289 289 290 290 291 291 291 292 292 293 293 294 294 295 296 297 298 299 300 301 302 304 306 308 312 315 318 321 324 325 325 325 325 325 325 325 325 325 325 325 325 324 323 323 323 323 323 322 322 322 322
284 284 285 285 287 287 287 287 288 288 288 288 289 290 290 291 291 291 291 292 292 292 293 294 295 296 297 297 298 299 300 301 302 303 305 307 310 313 316 319 322 323 323 323 324 324 324 324 324 324 324 324 324 323 323 323 322 322 322 322 322 322
283 284 284 285 286 286 286 286 287 287 287 288 288 289 290 290 290 290 291 291 291 292 293 293 295 296 296 296 297 298 298 299 300 301 302 303 306 308 311 315 318 320 321 320 320 322 322 323 322 323 323 323 323 323 322 322 321 321 321 321 320 321
283 283 284 284 285 285 286 285 286 286 286 287 288 289 289 290 289 290 290 290 290 291 292 293 293 294 295 296 296 296 297 297 298 299 299 300 302 304 307 310 313 316 318 318 318 318 320 320 321 311 306 309 320 322 321 321 321 320 320 319 318 318
283 283 283 284 284 285 285 285 285 286 286 287 287 288 289 289 289 289 289 290 291 291 292 292 292 293 293 294 295 295 296 296 297 297 298 299 300 302 304 305 308 311 314 316 316 315 316 317 317 306 304 305 306 316 320 319 319 319 318 317 316 316
282 283 283 283 284 285 285 284 285 285 285 286 287 288 289 289 288 288 289 289 290 290 291 291 292 292 292 293 294 294 295 295 296 296 298 299 299 300 302 303 304 307 309 312 313 314 314 315 305 304 303 303 303 304 316 319 318 317 317 316 315 315
282 283 283 284 284 284 285 285 284 284 285 286 287 288 288 288 288 288 289 289 289 289 290 290 291 291 291 292 293 294 294 294 295 296 296 296 297 299 300 301 302 304 306 308 309 310 311 312 304 302 301 301 301 301 306 317 316 316 315 314 313 313
283 283 284 284 284 285 285 285 284 285 285 286 287 287 287 288 288 288 288 289 289 289 289 289 290 290 291 291 292 292 293 293 294 295 296 296 297 298 298 299 300 302 304 306 307 308 310 310 302 300 299 299 298 299 301 312 314 313 313 312 311 310
283 283 283 283 284 284 285 284 285 285 285 285 286 287 287 287 287 287 288 288 288 289 289 289 289 289 290 290 291 291 292 292 293 294 295 295 295 295 296 297 298 300 301 303 304 306 307 309 300 298 298 298 298 298 298 309 310 309 309 309 307 307
282 282 283 284 284 284 284 284 285 284 284 285 285 286 286 287 287 287 287 288 288 288 289 289 288 288 289 289 290 290 290 291 292 292 294 294 295 296 297 297 298 298 299 301 302 303 304 306 298 296 296 296 297 297 301 306 306 305 304 304 303 303
283 283 284 283 284 283 283 284 284 284 284 284 285 285 286 286 285 286 287 287 288 288 289 289 288 288 288 288 288 289 289 290 290 291 293 293 294 294 295 296 298 299 300 300 301 301 302 304 297 293 294 295 296 297 302 303 304 303 303 302 302 302
283 284 283 283 283 283 284 284 284 283 283 283 284 285 284 285 285 285 286 287 288 288 288 288 288 288 287 287 287 287 288 289 290 291 292 292 292 293 294 295 296 298 299 299 299 300 301 302 296 291 293 294 295 296 302 302 303 302 302 301 300 300
283 283 283 283 282 283 284 284 283 283 283 283 284 284 284 284 284 285 286 287 287 287 288 288 288 287 287 287 287 287 288 288 289 289 291 291 293 293 294 294 295 296 298 298 298 292 295 299 295 289 292 293 294 296 302 302 303 301 300 299 297 297
283 282 282 282 282 283 283 283 283 283 282 283 283 283 283 284 284 286 287 287 287 287 287 287 287 287 287 287 287 287 288 288 288 289 289 290 291 292 293 294 295 295 296 297 295 294 294 295 297 293 291 292 293 294 300 302 302 300 300 298 296 294
282 282 282 282 283 283 283 283 282 282 282 283 282 282 283 284 285 286 286 286 286 286 286 286 286 286 286 287 287 288 287 288 288 288 288 288 289 290 291 292 293 294 294 295 295 294 294 294 295 293 290 292 293 293 294 300 301 301 300 298 294 294
282 282 282 283 283 283 283 283 282 282 282 282 281 282 284 285 285 285 285 284 284 284 284 285 285 286 286 287 287 287 287 288 288 288 288 288 288 288 289 289 290 292 293 294 295 294 293 292 289 294 290 291 292 293 293 297 300 301 300 297 295 294
281 281 282 282 283 283 283 282 281 281 281 281 282 283 284 284 284 283 283 282 283 283 283 284 284 285 286 285 286 286 285 286 287 287 288 288 287 288 288 289 290 291 291 292 294 294 293 293 291 288 290 289 291 292 293 293 296 294 297 297 294 294
281 281 282 282 282 282 282 281 280 280 280 280 282 283 283 282 282 281 281 281 281 281 282 283 283 284 283 283 284 284 284 285 286 286 287 287 287 287 287 288 290 290 290 290 291 293 293 293 292 289 288 289 289 292 293 293 293 292 295 295 295 295
280 281 281 281 281 281 281 281 280 279 279 280 281 281 280 280 279 279 279 279 280 280 281 280 280 281 281 282 283 283 284 284 285 285 286 286 287 287 287 287 288 289 289 290 290 292 293 293 292 291 289 287 288 290 292 292 292 292 292 291 294 294
280 280 279 279 280 280 280 280 279 277 278 280 280 280 279 278 278 278 278 278 279 279 279 279 279 280 281 282 283 284 284 285 285 285 285 286 286 287 287 287 288 288 288 289 291 291 292 292 291 290 290 287 287 288 290 291 290 289 289 290 291 289
278 278 278 277 278 278 278 278 278 278 278 278 278 277 277 277 277 276 276 276 277 277 278 277 278 279 280 281 283 284 285 285 285 285 285 285 286 286 287 287 287 287 288 288 290 291 292 290 289 289 289 289 289 289 289 290 289 288 288 289 290 287
277 276 276 275 276 277 277 277 276 277 276 276 276 276 276 274 274 274 274 275 275 276 277 277 279 279 280 281 282 283 283 284 284 284 284 284 285 285 285 286 287 287 288 288 290 290 290 289 288 288 288 288 289 289 290 290 290 289 290 290 289 288
275 274 274 274 275 275 275 275 275 275 275 275 275 274 272 272 272 273 273 274 275 276 277 278 278 279 280 281 282 283 283 283 283 283 284 285 286 286 285 285 286 287 288 289 289 289 289 290 289 289 288 288 288 288 289 289 289 289 290 289 288 287
273 272 272 273 273 273 273 273 273 274 274 274 272 271 270 270 271 272 272 274 275 276 277 278 279 280 280 280 280 281 282 284 284 284 283 283 284 285 285 286 285 286 288 288 290 290 290 290 292 290 288 287 287 288 288 289 289 289 289 288 288 287
272 272 271 271 272 271 271 272 272 272 272 271 271 271 270 271 271 272 273 274 275 276 276 276 276 276 277 277 278 278 278 279 281 283 284 284 284 284 285 285 286 286 286 287 287 289 290 289 290 289 287 287 287 288 288 288 288 289 288 288 287 286
270 270 270 271 271 271 271 270 270 270 270 270 270 270 270 271 271 272 273 274 274 274 274 274 274 275 276 276 277 277 278 278 278 279 282 283 284 284 285 285 286 286 286 287 287 287 289 289 289 288 287 286 287 287 287 288 288 288 288 288 288 286
270 271 270 270 270 270 269 268 268 269 269 269 270 270 270 271 272 270 270 270 271 272 272 272 273 273 273 274 274 275 277 277 277 277 278 282 284 284 285 286 286 286 286 287 287 287 287 288 289 288 287 286 286 286 286 287 288 288 288 288 287 286
270 269 269 269 268 268 267 267 267 268 268 269 269 271 271 269 268 268 269 269 270 270 271 271 271 271 272 273 274 275 275 276 277 278 278 279 280 282 285 286 286 286 286 286 287 287 287 287 288 287 286 286 286 286 286 287 287 288 289 287 286 286
268 267 267 267 267 266 266 266 266 267 268 269 270 269 268 267 267 268 269 270 270 270 269 270 270 271 271 272 273 273 274 275 277 278 279 279 279 280 281 283 285 286 286 286 286 287 287 287 287 287 286 286 286 286 287 287 286 285 286 286 286 286
266 266 266 265 265 265 265 265 267 268 269 270 269 267 266 266 266 267 268 268 269 268 268 269 269 270 270 271 271 272 274 275 276 277 278 280 281 281 281 282 284 286 286 286 286 286 286 287 287 287 286 286 286 286 287 284 284 284 285 285 285 285
Wind_Speed
18 17 17 16 16 17 17 16 15 15 15 16 15 17 15 15 13 14 12 14 12 11 14 14 13 11 11 11 10 9 11 13 13 13 13 10 9 9 9 9 9 9 9 11 15 15 15 16 16 16 15 15 15 14 14 15 15 14 15 15 15 14
17 18 18 18 17 16 16 16 15 18 16 16 17 15 15 16 16 15 14 14 13 14 14 13 14 15 13 12 11 9 11 12 15 13 13 14 11 11 10 10 10 10 10 12 12 12 16 16 16 15 15 15 16 15 14 14 16 16 16 15 14 12
16 16 16 16 15 14 15 15 16 15 15 16 17 18 17 18 15 15 14 14 14 15 15 15 14 15 14 16 14 14 13 12 11 14 14 11 12 11 11 12 12 12 12 11 12 12 14 15 15 14 15 15 17 16 15 15 16 17 15 14 16 14
16 16 15 15 16 17 18 16 15 17 18 16 16 16 15 17 16 15 15 14 13 15 14 14 13 13 13 14 15 15 15 14 13 13 12 11 14 11 13 12 11 9 11 11 12 14 14 14 15 15 15 16 17 17 13 14 16 16 16 15 15 15
16 16 17 17 17 17 18 17 16 16 17 17 16 16 16 16 15 14 14 14 14 16 14 13 13 13 14 13 12 13 14 14 15 13 12 13 13 10 11 12 11 11 11 13 16 16 14 14 13 13 16 16 17 17 15 15 16 16 16 16 16 16
14 15 17 18 17 17 17 16 16 16 16 16 17 18 19 17 15 15 16 15 16 15 14 14 14 15 14 14 12 13 14 13 14 14 13 13 12 12 11 12 12 12 11 13 14 17 14 13 12 13 17 19 17 16 17 16 16 16 16 17 16 16
16 15 15 15 16 16 16 16 17 16 16 16 16 16 17 16 15 16 15 15 17 16 14 15 14 14 15 15 14 15 15 14 13 13 14 14 13 13 12 11 11 13 15 16 19 18 17 13 14 17 19 16 16 17 16 16 16 15 16 17 17 16
14 15 16 15 14 14 15 16 17 16 16 17 16 16 16 16 15 16 15 14 15 15 16 16 15 15 16 15 15 15 15 15 14 14 13 14 14 14 13 13 11 10 12 15 16 16 17 17 17 19 19 18 17 16 16 15 15 15 16 16 16 16
18 18 17 15 15 15 14 14 15 16 16 17 17 16 16 15 15 16 15 16 15 14 15 16 16 15 14 14 15 14 13 13 13 14 14 13 14 14 14 13 13 11 10 13 16 16 17 17 17 17 16 17 17 17 17 16 16 15 14 15 15 16
17 18 18 18 16 17 16 15 14 14 14 16 16 15 15 14 16 16 16 15 15 15 16 15 15 14 15 14 13 13 13 12 13 13 13 13 14 14 15 15 13 12 11 13 13 15 15 15 16 16 17 17 16 16 17 17 15 16 15 14 13 14
16 18 18 17 18 19 19 17 16 16 15 14 14 14 15 15 16 16 15 15 15 15 15 15 14 13 15 15 14 14 14 14 12 12 13 12 13 12 13 15 15 14 13 12 12 13 11 11 14 14 14 16 17 16 16 17 14 14 12 12 11 12
17 17 17 18 19 19 18 17 18 17 17 17 15 15 14 15 16 16 16 16 15 15 15 15 15 15 15 15 15 14 14 14 13 12 13 13 13 13 12 13 15 14 13 14 13 12 12 11 10 13 17 15 13 15 13 13 13 13 12 11 11 11
16 17 18 18 18 18 17 16 16 17 18 17 16 15 14 14 15 15 15 16 16 16 15 15 15 15 16 15 14 15 15 15 14 13 11 11 12 12 13 12 14 15 14 13 12 13 12 12 13 17 16 18 18 14 13 12 11 11 11 11 12 12
17 18 17 17 17 17 16 16 17 16 17 17 17 17 15 14 14 14 15 14 15 16 16 15 16 16 16 16 16 16 16 14 13 13 12 9 10 10 10 12 13 13 13 12 13 13 12 13 14 15 16 18 20 17 14 12 11 10 11 11 12 11
17 18 18 16 15 15 16 16 16 16 16 17 17 16 16 16 15 14 14 14 14 15 15 15 16 17 16 16 16 16 15 15 15 14 14 15 12 10 10 11 12 14 13 12 12 13 13 12 15 15 16 17 17 18 14 10 10 11 11 12 11 10
16 16 17 17 17 15 15 14 15 15 16 16 16 16 16 17 17 16 16 15 14 13 14 15 15 16 16 16 16 16 16 16 16 14 13 12 11 10 10 10 12 13 13 12 12 12 12 13 13 15 16 15 16 17 15 11 10 10 11 11 11 10
18 18 18 17 17 16 15 15 14 15 15 15 16 16 16 15 17 17 16 16 16 15 13 14 15 15 15 15 16 16 17 17 16 16 13 12 12 12 13 13 13 11 11 12 12 12 12 12 14 14 16 16 17 16 14 9 8 8 10 10 9 10
18 19 18 16 16 16 15 16 16 15 16 15 15 16 15 16 16 16 17 17 16 17 16 15 15 15 15 15 15 15 16 17 16 17 15 14 13 11 10 9 9 11 13 13 12 12 13 13 11 13 15 15 15 15 11 9 8 9 9 8 8 8
16 18 17 17 17 17 17 16 16 16 17 16 15 15 15 15 16 16 16 16 17 17 17 17 17 16 15 15 16 15 15 15 17 16 14 15 14 13 13 13 11 11 12 13 12 13 12 13 10 12 14 14 15 13 10 9 7 7 8 9 8 8
15 16 15 18 18 17 16 16 16 17 17 17 15 15 16 15 16 16 17 16 16 16 17 17 17 17 16 15 16 15 14 13 12 14 12 14 15 15 14 13 14 12 11 12 13 12 12 12 8 11 12 14 15 14 12 10 10 10 10 8 8 8
16 15 15 16 17 17 17 18 18 17 17 17 17 16 16 16 16 16 16 17 17 17 16 16 17 17 17 17 16 15 15 14 12 11 12 13 13 14 13 12 12 13 11 12 13 10 10 10 7 9 11 12 14 13 10 10 10 10 10 9 9 8
15 15 16 16 17 17 17 17 16 17 17 17 16 17 17 16 16 16 17 17 17 16 16 15 16 17 17 17 17 16 14 13 13 13 12 13 12 13 13 12 11 13 12 10 10 9 9 9 9 8 12 12 13 14 10 9 10 11 12 10 9 9
14 15 16 14 15 14 14 14 15 16 16 17 17 17 16 16 16 17 17 16 17 17 17 16 16 18 18 17 16 16 15 13 13 13 13 13 12 13 13 13 12 11 12 10 8 9 10 8 10 8 12 13 15 15 13 9 11 6 7 9 8 9
14 15 15 15 14 14 13 13 15 17 17 17 18 18 16 16 17 16 16 17 17 17 17 17 17 17 16 16 16 16 16 15 13 12 13 11 12 14 15 13 11 11 12 10 7 9 11 9 10 10 11 15 15 16 17 11 11 4 5 7 9 9
15 15 15 14 14 13 13 14 16 16 16 17 19 16 15 15 16 16 17 17 18 17 17 17 18 17 14 15 16 17 19 17 14 13 12 12 13 13 14 14 11 10 11 11 9 10 11 10 9 11 10 14 16 16 18 16 10 4 4 6 9 11
14 14 14 13 13 13 13 13 15 15 16 19 17 15 14 14 15 16 16 16 17 16 15 16 17 18 17 17 17 17 18 17 15 14 12 11 10 11 12 12 11 8 11 11 10 11 11 10 9 10 13 12 16 16 16 16 13 8 7 7 8 7
15 14 14 13 15 15 14 13 14 15 18 17 14 13 14 15 15 15 16 16 16 15 15 16 17 18 17 17 16 16 16 17 14 14 13 12 10 10 11 11 10 10 9 9 11 10 11 10 9 8 11 14 14 17 17 16 15 12 11 7 6 6
11 12 14 16 15 15 13 13 13 15 17 14 11 13 13 15 16 16 16 16 16 16 15 16 17 17 17 17 15 14 14 14 14 13 13 13 12 12 11 11 9 10 10 11 10 9 9 10 9 8 7 9 12 13 16 17 16 14 13 10 6 7
10 12 13 14 16 14 13 13 13 14 14 12 12 12 13 14 15 16 16 16 15 15 14 16 15 15 15 15 14 14 13 13 13 13 13 13 13 13 12 12 11 9 10 11 10 7 7 6 7 8 9 8 8 8 10 11 11 13 12 8 7 9
11 12 13 15 16 14 13 13 14 14 13 11 11 11 12 14 15 15 16 17 16 14 14 14 18 19 15 15 14 14 14 13 13 13 14 13 13 13 14 12 12 12 11 11 10 8 8 8 7 8 10 10 9 7 5 8 8 10 10 10 8 7
11 13 14 16 15 13 13 14 15 14 14 12 9 8 13 15 16 16 17 16 14 15 14 14 14 14 14 14 14 14 14 14 14 14 15 16 13 13 14 14 14 14 14 12 11 11 11 10 10 12 9 7 10 11 9 8 9 8 8 8 11 9
13 13 13 14 12 11 13 14 15 15 12 8 8 10 12 14 15 16 16 15 14 14 14 13 12 12 12 13 14 16 16 17 19 18 17 18 20 21 22 19 17 17 13 14 14 11 12 13 10 3 14 17 18 17 16 14 12 9 7 11 17 12
13 12 14 14 12 13 13 13 13 13 11 7 9 11 13 15 14 14 15 15 13 13 13 14 15 15 14 14 14 16 18 19 19 19 24 26 28 26 26 26 27 30 28 19 18 18 19 20 20 11 14 16 17 17 18 16 15 15 14 17 13 10
13 14 15 14 12 12 13 14 16 16 13 12 12 12 13 15 14 13 13 12 13 16 17 15 15 15 14 14 13 14 16 17 18 21 20 22 25 25 25 26 26 27 26 25 23 19 15 17 17 14 13 15 16 18 17 18 18 18 19 21 19 10
12 13 14 14 13 13 12 12 17 15 11 12 13 14 15 14 11 12 15 16 18 16 16 15 14 14 14 15 15 14 14 15 15 17 21 19 15 21 22 22 23 23 24 22 22 23 21 20 14 13 15 16 17 18 18 19 19 19 20 22 15 12
12 13 15 15 15 15 14 15 16 13 12 13 14 13 11 12 14 16 16 15 16 16 15 14 14 14 15 14 14 14 14 15 16 17 17 20 21 14 14 19 22 22 22 21 21 21 21 21 21 16 17 18 18 18 18 18 14 19 23 22 15 12
14 14 15 15 16 17 17 18 18 12 13 14 12 11 13 16 18 17 19 26 21 16 15 14 14 14 14 14 14 14 15 15 16 16 17 17 18 19 18 14 13 13 17 15 14 17 20 21 20 18 18 19 19 19 19 18 10 15 16 17 13 13
13 14 14 14 16 16 17 18 13 10 13 12 11 12 15 17 17 17 15 15 16 14 14 14 14 14 14 15 15 15 15 16 16 16 16 17 17 18 19 18 15 12 10 16 18 19 18 19 19 18 18 18 20 20 21 15 14 15 16 19 14 11
Wind_Direction
14 15 16 15 14 11 7 4 6 6 9 9 9 3 1 1 356 355 348 350 342 333 324 317 304 285 274 271 265 257 259 257 252 249 250 249 243 239 230 220 214 201 205 212 228 229 226 224 223 221 219 217 218 218 218 217 215 215 217 219 218 221
12 11 9 10 10 9 6 4 3 5 3 2 3 360 1 359 360 358 354 349 345 336 331 325 317 309 300 286 277 260 243 248 258 255 249 247 244 239 230 221 212 210 210 215 209 216 226 225 226 220 220 218 219 217 216 215 212 214 218 219 218 218
10 9 7 5 4 7 7 7 3 0 360 360 359 357 355 359 357 355 353 347 342 339 335 332 328 317 310 304 294 283 272 256 249 255 254 252 243 235 233 222 221 215 209 207 210 217 218 215 217 219 220 219 219 218 216 214 212 213 216 218 219 218
5 5 5 5 4 3 4 2 2 1 0 356 355 355 356 354 354 353 350 345 339 341 334 330 326 325 319 309 301 293 286 279 270 263 262 259 256 245 244 241 228 222 221 222 217 219 217 214 214 215 219 219 221 219 214 215 213 212 214 214 219 219
4 1 2 3 3 1 360 359 360 358 355 355 353 351 353 351 348 348 348 344 340 338 335 332 333 328 324 318 308 298 292 289 284 277 270 263 262 253 243 245 238 229 219 218 221 220 215 213 208 206 216 220 221 219 215 214 212 212 212 213 216 216
3 4 2 1 0 359 358 354 353 352 353 352 349 349 348 350 349 347 345 343 340 336 335 336 335 333 332 325 319 312 307 299 290 282 273 265 261 257 250 243 241 236 223 221 224 230 219 214 210 210 220 224 223 220 218 216 215 214 213 213 214 215
6 4 359 358 356 354 354 353 350 348 347 348 347 345 346 346 346 345 344 342 337 335 334 334 337 336 334 331 325 318 313 308 299 291 283 276 268 260 255 246 233 235 235 237 238 234 230 218 218 222 223 222 223 223 221 218 217 217 216 215 216 215
359 0 358 354 352 351 349 349 347 345 342 342 344 342 343 344 344 343 340 339 337 334 336 337 338 338 333 330 328 325 320 314 308 302 294 287 279 269 260 256 241 229 230 238 239 234 233 233 228 225 223 222 221 221 221 220 218 218 217 216 216 215
356 354 353 351 348 346 344 342 343 342 341 339 341 341 339 341 342 340 339 336 334 334 336 337 335 331 331 330 327 322 316 313 308 304 298 293 287 281 273 264 257 247 236 235 235 234 233 231 228 226 223 224 221 220 219 220 220 219 217 216 214 215
350 351 349 347 345 342 341 340 339 339 340 337 335 337 338 338 338 337 336 336 334 334 333 332 328 327 329 326 321 322 321 318 316 312 306 302 292 283 276 271 265 257 248 241 237 236 231 228 231 231 226 222 220 218 219 219 218 218 216 215 213 215
348 345 344 342 341 341 340 338 338 337 334 333 334 336 337 336 335 333 333 334 333 331 330 327 328 327 324 324 326 326 329 326 319 317 311 305 297 290 283 278 271 262 254 245 240 239 234 229 228 225 222 221 220 220 219 219 216 215 214 214 210 212
344 341 340 337 338 337 337 336 335 334 333 330 330 333 334 336 333 331 330 330 329 328 328 327 327 327 327 325 325 326 326 328 325 321 318 310 302 295 288 283 275 266 257 250 241 236 233 230 228 224 216 215 218 217 218 216 215 212 211 212 214 214
338 338 336 334 332 333 331 331 330 329 326 327 328 327 330 332 329 328 328 326 326 325 326 327 326 327 327 325 324 326 327 327 324 317 306 306 306 296 291 282 274 264 258 252 244 233 227 228 228 221 213 213 213 213 215 213 211 209 209 212 212 213
334 334 331 329 328 327 327 326 326 324 323 323 324 324 323 324 323 324 323 323 323 324 324 325 326 326 325 325 326 326 323 317 316 316 314 300 299 288 285 279 272 270 264 257 249 242 235 232 231 222 214 214 215 212 216 215 213 209 209 210 212 213
331 328 326 325 324 323 322 321 318 318 318 319 319 320 321 321 320 319 318 318 320 322 322 322 324 324 324 324 322 322 322 322 320 321 325 322 314 298 288 277 273 267 262 256 251 246 241 239 232 222 219 219 217 216 215 219 214 211 211 210 209 210
324 322 320 320 319 318 315 314 311 309 313 314 316 317 317 318 319 318 319 319 316 317 319 321 320 320 321 322 322 321 320 320 318 316 313 312 314 313 299 288 279 274 265 256 250 249 246 240 235 220 220 219 216 215 211 222 218 212 211 209 207 205
316 318 317 316 317 315 315 312 311 310 311 314 314 314 313 314 315 317 316 316 317 315 315 319 319 318 317 319 320 320 320 318 317 318 320 319 317 313 311 307 300 285 271 265 257 254 250 244 231 216 216 217 213 210 206 217 218 210 210 205 201 197
311 312 312 311 310 312 312 310 311 311 309 311 310 308 309 310 311 312 314 312 314 317 318 318 317 316 316 317 317 317 317 318 317 318 318 316 311 305 297 290 279 282 279 270 262 255 252 253 231 215 219 215 211 199 196 206 204 193 186 182 181 182
301 304 305 305 308 308 308 307 310 310 310 310 308 307 307 309 310 311 310 310 312 314 316 317 315 313 314 315 313 313 312 314 315 315 319 315 314 313 311 307 296 291 286 280 267 257 256 257 228 212 215 210 199 188 198 195 195 195 193 197 192 189
293 296 299 301 301 301 303 306 308 309 308 308 308 308 306 307 306 308 308 307 311 311 312 312 312 311 311 311 309 308 306 305 303 305 310 309 309 307 306 306 302 293 284 277 271 260 261 261 238 208 213 205 193 190 193 193 195 196 193 192 186 189
291 291 292 291 294 298 302 304 305 305 304 305 306 306 305 305 305 307 307 307 308 308 307 307 307 306 306 306 305 306 305 305 304 302 304 303 303 300 299 299 296 293 284 277 268 269 259 263 249 203 215 208 198 195 199 198 198 196 197 189 190 190
289 289 290 291 293 297 300 300 301 299 299 301 303 303 303 304 307 306 305 305 304 305 305 304 303 303 302 303 304 304 300 302 303 301 301 301 301 301 297 295 287 285 282 277 266 256 250 253 254 216 211 207 205 205 210 203 201 203 198 193 185 183
283 284 287 290 291 293 295 296 298 298 297 298 300 298 300 306 307 305 305 304 304 303 302 303 302 301 301 301 300 300 298 295 295 299 300 300 301 300 296 291 283 275 277 273 264 262 252 245 248 231 209 212 206 203 215 216 217 207 182 188 187 195
283 284 287 289 291 292 293 294 293 295 297 296 294 295 304 309 305 305 306 304 302 301 302 302 301 300 299 299 300 300 298 296 294 292 294 293 295 296 293 292 286 280 274 271 261 257 252 244 233 242 213 215 212 204 202 217 223 229 182 184 198 198
286 286 288 291 291 291 291 292 291 290 292 292 292 300 309 305 305 306 306 305 303 300 300 299 300 299 298 297 298 298 296 295 295 292 288 287 289 288 288 288 285 275 273 271 266 263 257 246 233 224 221 215 217 212 207 210 217 197 199 197 202 204
282 284 287 289 290 291 291 291 289 288 289 289 295 304 305 302 303 304 305 302 298 299 298 300 300 300 297 295 295 295 291 290 292 292 289 285 279 280 282 284 286 275 272 269 266 264 259 249 240 225 218 218 215 216 215 211 211 185 196 203 215 211
281 284 285 287 290 290 289 288 287 288 285 288 302 303 303 303 303 302 299 296 295 296 297 298 295 293 292 289 289 288 289 287 289 290 291 290 283 275 273 275 275 273 269 264 262 262 260 248 238 236 219 215 220 217 210 209 207 199 181 188 199 196
281 282 284 287 288 289 289 288 287 285 284 295 303 302 302 301 299 298 297 295 294 294 295 294 292 289 287 287 286 283 281 282 285 286 287 286 284 281 277 273 267 265 266 264 259 252 249 246 235 231 222 210 217 222 218 205 201 196 191 186 188 167
283 283 285 287 288 290 291 289 288 285 292 299 304 302 298 298 299 298 295 292 292 294 295 295 293 291 291 288 286 283 282 282 283 284 284 283 283 283 282 279 276 265 260 265 260 254 256 240 222 218 218 203 207 208 211 203 200 186 178 182 177 154
281 283 286 286 287 291 293 290 288 289 294 298 300 300 306 301 294 292 290 288 289 290 290 291 290 289 288 287 286 287 285 282 280 280 277 280 280 283 283 282 282 278 270 266 265 263 252 235 222 212 209 209 199 201 195 207 198 189 185 185 172 157
288 286 286 283 284 289 289 287 287 287 290 294 300 316 305 293 289 288 285 284 283 283 285 286 287 287 286 287 286 283 281 282 284 280 281 274 271 271 275 282 277 274 276 277 271 264 261 251 235 230 205 200 195 197 195 198 204 198 197 175 150 139
282 281 279 279 282 283 281 283 284 286 288 297 308 304 290 285 286 286 283 282 281 281 283 284 285 284 285 289 292 294 290 278 270 274 275 280 272 262 261 259 267 270 273 276 269 258 255 257 260 200 165 191 197 202 201 203 197 193 176 155 155 152
282 281 278 275 278 279 278 278 280 285 293 306 298 292 284 281 282 281 280 279 276 281 288 291 289 285 284 281 280 281 282 287 284 266 264 265 269 270 265 261 260 261 261 254 266 264 255 257 261 239 194 197 197 195 202 198 191 181 167 153 152 163
285 283 279 280 278 278 283 285 284 284 293 297 292 286 280 275 273 274 280 288 291 291 287 282 281 282 282 282 282 280 280 279 284 289 268 256 265 264 260 260 257 258 258 254 249 256 264 257 252 235 206 197 194 198 198 197 193 184 173 169 168 174
279 281 282 283 283 286 285 281 281 286 292 289 286 284 276 275 286 299 296 290 285 283 280 278 279 279 279 280 280 277 275 275 278 280 291 285 243 254 261 258 257 255 257 254 253 248 250 255 251 220 205 195 195 193 195 196 193 185 174 165 178 195
278 277 279 281 285 287 284 279 280 292 296 291 283 276 286 301 297 288 283 280 279 280 280 278 277 276 275 273 272 273 273 274 272 274 275 283 295 276 255 252 249 250 249 249 248 252 250 249 246 226 203 193 192 192 192 190 190 185 177 180 192 191
277 276 276 281 287 289 288 283 285 295 287 282 281 293 299 295 291 286 278 276 275 273 275 275 273 272 271 271 271 271 271 268 268 266 267 271 274 283 283 281 270 245 226 237 245 245 247 245 240 224 204 194 190 189 186 177 171 186 190 195 199 195
276 277 281 285 285 282 280 276 280 286 287 292 299 297 293 290 286 282 277 277 276 275 274 273 271 269 268 270 270 269 268 268 269 268 268 267 267 270 277 279 269 271 256 232 234 237 241 240 233 221 203 194 188 184 170 176 191 191 194 196 198 194